Regional Weather Roundup
Issued by NWS

Home | Current Version | Previous Version | Graphics & Text | Print | Product List | Glossary On
Versions: 1 2 3 4 5 6 7 8 9 10 11 12 13 14 15 16 17 18 19 20 21 22 23 24 25 26 27 28 29 30 31 32 33 34 35 36 37 38 39 40 41 42 43 44 45 46 47 48 49 50
000
ASUS43 KLMK 081202
RWRKY
KENTUCKY REGIONAL WEATHER ROUNDUP
NATIONAL WEATHER SERVICE LOUISVILLE KY
700 AM EST MON FEB 08 2016

NOTE "FAIR" INDICATES FEW OR NO CLOUDS BELOW 12,000 FEET
WITH NO SIGNIFICANT WEATHER AND/OR OBSTRUCTIONS TO VISIBILITY.

KYZ001>023-026-027-061>063-070>075-081300-
WESTERN AND SOUTH CENTRAL KENTUCKY

CITY           SKY/WX    TMP DP  RH WIND       PRES   REMARKS
PADUCAH        CLOUDY    37  26  64 W7        29.81R WCI  32
HENDERSON      CLOUDY    36  30  80 W6        29.76F WCI  31
OWENSBORO      LGT SNOW  33  33 100 W7        29.77S FOG     WCI  27
HOPKINSVILLE   PTCLDY    37  28  69 W12       29.76S WCI  29
BOWLING GREEN  CLOUDY    37  34  89 SW6       29.75F WCI  32
GLASGOW        NOT AVBL
$$

KYZ024-025-028>034-038-045-046-053-081300-
NORTH CENTRAL KENTUCKY

CITY           SKY/WX    TMP DP  RH WIND       PRES   REMARKS
LOUISVILLE/SDF PTCLDY    35  33  92 SW5       29.72F WCI  31
LOUISVILLE/LOU PTCLDY    35  33  92 CALM      29.72F
FORT KNOX      CLOUDY    33  32  96 S3        29.70S
$$

KYZ035>037-039>044-047>052-055>060-089>105-081300-
NORTHEAST KENTUCKY

CITY           SKY/WX    TMP DP  RH WIND       PRES   REMARKS
LEXINGTON      FLURRIES  35  33  92 SW7       29.71F WCI  29
COVINGTON      LGT RAIN  36  34  92 W9        29.67S WCI  29
FRANKFORT      MOCLDY    33  31  92 SW6       29.70F WCI  28
$$

KYZ054-064>069-076>088-106>120-081300-
SOUTHEAST KENTUCKY

CITY           SKY/WX    TMP DP  RH WIND       PRES   REMARKS
JACKSON        FLURRIES  36  31  82 VRB6      29.71R WCI  31
LONDON         LGT RAIN  36  33  89 SW8       29.74S WCI  30
SOMERSET       NOT AVBL
MIDDLESBORO    DRIZZLE   40  31  70 W7        29.75S
MONTICELLO     CLOUDY    35  34  96 NE8       29.76F WCI  29
$$




USA.gov is the U.S. government's official web portal to all federal, state and local government web resources and services.